Torna al catalogo

STARLINK-3732

AttivoComunicazioniVLEO
NORAD 52126·PAYLOAD·🇺🇸 United States

Lanciato Mar 19, 2022 da Cape Canaveral Space Force Station

Loading…

Prossimi Passaggi (prossime 24 ore)

TLE

AggiornatoSource: CelesTrak SupGP

Epoca: Sep 14, 2026, 13:33 UTC

1 52126C 22029AQ  26257.56506944  .00035250  00000+0  10086-2 0  2570
2 52126  53.1591 297.2705 0001391  69.0289 298.2457 15.35377546    16

Traccia STARLINK-3732 in tempo reale con AllMySat

Download on the App Store